Home > Time Zones > World Clock > Weather > Yemen > Sana > Past weeks

Flag for Yemen Weather past 2 weeks in Sana, Yemen

Now
77 °F

Scattered clouds.


Feels Like: 78 °F
Forecast: 66 / 82 °F
Wind: 10 mph from Northeast

Location: Sana'A Airport

Current Time: Aug 20, 2014 at 11:48:44 AM

Latest Report: Aug 20, 2014 at 11:00 AM


Visibility: N/A

Pressure: 30.27 "Hg

Humidity: 34%

Dew point: 46 °F

Location of SanaLocation

Historic Weather in Sana — Graph

°F

Sana temperature yesterday

Maximum temperature yesterday: 81 °F (at 2:00 PM)
Minimum temperature yesterday: 61 °F (at 7:00 AM)
Average temperature yesterday: 70 °F

Past Weeks' High & Low Weather Summary

 TemperatureHumidityPressure
High86 °F (Aug 5, 1:00 PM)100% (Aug 20, 5:00 AM)30.33 "Hg (Aug 20, 5:00 AM)
Low57 °F (Aug 20, 5:00 AM)12% (Aug 17, 12:00 PM)30.07 "Hg (Aug 16, 4:00 PM)
Average72 °F44%30.19 "Hg
* Reported Aug 5 10:00 AM — Aug 20 10:00 AM, Sana, Weather by CustomWeather, © 2014

Note: Actual official high and low records may vary slightly from our data, if they occured in-between our weather recording intervals... More about our weather records

Advertising

Sana weather history for previous 24 hours

 ConditionsComfort  
Time TempWeatherWind HumidityBarometerVisibility
10:00 AM
Aug 20
73 °FPassing clouds.3 mph50%30.30 "HgN/A
9:00 AM68 °FPassing clouds.2 mph64%30.30 "HgN/A
8:00 AM64 °FPassing clouds.1 mph68%30.27 "HgN/A
7:00 AM59 °FPassing clouds.2 mph100%30.27 "HgN/A
6:00 AM57 °FPassing clouds.3 mph100%30.27 "Hg5 mi
5:00 AM57 °FPassing clouds.No wind100%30.24 "HgN/A
4:00 AM59 °FPassing clouds.No wind88%30.24 "HgN/A
3:00 AM59 °FPassing clouds.No wind88%30.24 "HgN/A
2:00 AM59 °FPassing clouds.1 mph94%30.24 "HgN/A
1:00 AM61 °FPassing clouds.5 mph83%30.27 "HgN/A
12:00 AM61 °FPassing clouds.2 mph83%30.27 "HgN/A
11:00 PM
Aug 19
61 °FPassing clouds.5 mph83%30.33 "HgN/A
10:00 PM63 °FPassing clouds.5 mph73%30.33 "HgN/A
9:00 PM61 °FThunderstorms. Passing clouds.13 mph88%30.33 "Hg4 mi
8:00 PM68 °FThunderstorms. Passing clouds.9 mph64%30.27 "HgN/A
7:00 PM73 °FThunderstorms. Passing clouds.8 mph41%30.21 "HgN/A
6:00 PM75 °FScattered clouds.13 mph34%30.15 "HgN/A
5:00 PM73 °FThunderstorms. Scattered clouds.6 mph50%30.15 "HgN/A
4:00 PM79 °FThunderstorms. Scattered clouds.16 mph30%30.12 "Hg2 mi
3:00 PM79 °FScattered clouds.16 mph30%30.12 "HgN/A
2:00 PM81 °FPassing clouds.15 mph32%30.15 "Hg5 mi
1:00 PM77 °FThunderstorms. Scattered clouds.6 mph39%30.21 "HgN/A
12:00 PM79 °FScattered clouds.8 mph30%30.21 "HgN/A
11:00 AM79 °FScattered clouds.7 mph34%30.24 "HgN/A
Weather by CustomWeather, © 2014

See weather overviewHow to use our weather pages